Cotulla, TX

6:33 AM CST on November 19, 2019 (GMT -0600)
Cotulla-La Salle County

Weather History for KCOT - August, 2019

Change the Weather History Date:

Thursday, August 15, 2019

  Actual Average Record
Temperature  
Mean Temperature 93 °F -  
Max Temperature 106 °F 97 °F 106 °F (2019)
Min Temperature 81 °F 73 °F 69 °F (2004)
Cooling Degree Days 28    
Growing Degree Days 43 (Base 50)    
Moisture  
Dew Point 68 °F    
Average Humidity 50    
Maximum Humidity 82    
Minimum Humidity 24    
Precipitation  
Precipitation 0.00 in - - ()
Sea Level Pressure  
Sea Level Pressure 29.91 in    
Wind  
Wind Speed 6 mph (East)    
Max Wind Speed 13 mph    
Max Gust Speed -    
Visibility 10 miles    
Events      
Averages and records for this station are not official NWS values.
T = Trace of Precipitation, MM = Missing Value Source: NWS Daily Summary

Daily Weather History Graph

Daily Weather History Graph

Search for Another Location

Airport or City:

Astronomy

Aug. 15, 2019 Rise Set
Actual Time 7:06 AM CDT 8:16 PM CDT
Civil Twilight 6:41 AM CDT 8:40 PM CDT
Nautical Twilight 6:12 AM CDT 9:09 PM CDT
Astronomical Twilight 5:41 AM CDT 9:40 PM CDT
Moon 8:43 PM CDT (8/15) 7:06 AM CDT (8/15)
Length of Visible Light 13h 59m
Length of Day
13h 09m
Full, 100% of the Moon is Illuminated
Aug 15
Full
Aug 23
Last Quarter
Aug 30
New
Sep 5
First Quarter
Sep 13
Full

Hourly Weather History & Observations

Time (CDT) Temp. Heat Index Dew Point Humidity Pressure Visibility Wind Dir Wind Speed Gust Speed Precip Events Conditions
12:53 AM 88.0 °F 95.6 °F 73.0 °F 61% 29.94 in 10.0 mi SE 10.4 mph - N/A   Clear
1:53 AM 86.0 °F 93.8 °F 73.9 °F 67% 29.93 in 10.0 mi SSE 4.6 mph - N/A   Clear
2:53 AM 84.9 °F 92.1 °F 73.9 °F 69% 29.92 in 10.0 mi East 3.5 mph - N/A   Clear
3:53 AM 82.9 °F 89.4 °F 73.9 °F 74% 29.93 in 10.0 mi ENE 3.5 mph - N/A   Clear
4:53 AM 82.0 °F 87.9 °F 73.9 °F 76% 29.94 in 10.0 mi ENE 5.8 mph - N/A   Clear
5:53 AM 81.0 °F 86.2 °F 73.9 °F 79% 29.95 in 10.0 mi ESE 4.6 mph - N/A   Clear
6:53 AM 81.0 °F 86.2 °F 73.9 °F 79% 29.96 in 10.0 mi East 6.9 mph - N/A   Clear
7:53 AM 81.0 °F 86.7 °F 75.0 °F 82% 29.96 in 10.0 mi ESE 5.8 mph - N/A   Clear
8:53 AM 84.9 °F 93.3 °F 75.0 °F 72% 29.98 in 10.0 mi SE 9.2 mph - N/A   Clear
9:53 AM 89.1 °F 98.0 °F 73.9 °F 61% 29.98 in 10.0 mi SE 4.6 mph - N/A   Clear
10:53 AM 93.9 °F 100.8 °F 71.1 °F 47% 29.99 in 10.0 mi Variable 3.5 mph - N/A   Clear
11:53 AM 97.0 °F 101.0 °F 66.9 °F 37% 29.98 in 10.0 mi NW 5.8 mph - N/A   Clear
12:53 PM 98.1 °F 101.2 °F 64.9 °F 34% 29.95 in 10.0 mi North - - N/A   Partly Cloudy
1:53 PM 100.0 °F 101.8 °F 63.0 °F 29% 29.91 in 10.0 mi Calm Calm - N/A   Clear
2:53 PM 100.9 °F 103.3 °F 63.0 °F 29% 29.88 in 10.0 mi North 4.6 mph - N/A   Scattered Clouds
3:53 PM 102.0 °F 103.9 °F 62.1 °F 27% 29.86 in 10.0 mi Variable 3.5 mph - N/A   Partly Cloudy
4:53 PM 104.0 °F 105.3 °F 61.0 °F 24% 29.83 in 10.0 mi East 4.6 mph - N/A   Scattered Clouds
5:53 PM 105.1 °F 107.1 °F 61.0 °F 24% 29.82 in 10.0 mi Variable 5.8 mph - N/A   Clear
6:53 PM 100.9 °F 101.6 °F 60.1 °F 26% 29.82 in 10.0 mi ENE 8.1 mph - N/A   Partly Cloudy
7:53 PM 97.0 °F 98.3 °F 63.0 °F 32% 29.83 in 10.0 mi ENE 8.1 mph - N/A   Clear
8:53 PM 93.9 °F 96.1 °F 64.9 °F 38% 29.83 in 10.0 mi Calm Calm - N/A   Partly Cloudy
9:53 PM 91.9 °F 95.4 °F 66.9 °F 44% 29.84 in 10.0 mi East 5.8 mph - N/A   Clear
10:53 PM 91.9 °F 95.4 °F 66.9 °F 44% 29.88 in 10.0 mi SE 12.7 mph - N/A   Clear
11:53 PM 90.0 °F 92.4 °F 66.0 °F 45% 29.89 in 10.0 mi SSE 11.5 mph - N/A   Clear